Location: Birdton
(46.1166°N, 66.8166°W)
Time: 20:41:36
(UTC-03:00)

Daily predictions for brighter satellites

Satellite Brightness Start Highest point End
(mag) Time Altitude Azimuth Time Altitude Azimuth Time Altitude Azimuth
Cosmos 2227 4.3 20:46:15 10° NNW 20:52:01 67° ENE 20:57:42 10° SE
Resurs 01 Rocket 1.9 20:49:10 10° S 20:53:36 77° WSW 20:58:05 10° NNW
Cosmos 2360 4.4 20:50:08 10° S 20:55:37 50° ESE 21:01:10 10° NE
BREEZE-M DEB (TANK) 3.8 20:52:38 10° W 20:56:37 89° NNW 21:11:59 10° E
Helios 1A 3.3 20:52:32 10° SSE 20:56:38 52° ENE 21:00:47 10° N
CZ-3B DEB 3.2 20:55:42 10° WNW 20:59:58 24° WSW 21:02:33 10° S
GRACE-1 3.8 20:58:57 10° N 21:01:42 65° E 21:04:26 10° S
GRACE-2 3.8 20:59:21 10° N 21:02:06 65° E 21:04:49 10° S
SAR-Lupe-4 3.7 21:00:06 10° SSE 21:03:37 55° ENE 21:07:09 10° N
Cosmos 1486 Rocket 4.0 21:01:11 10° NNW 21:06:27 88° ENE 21:11:42 10° SSE
ERS-1 Rocket 4.0 21:02:46 10° SE 21:07:06 30° ENE 21:11:27 10° N
Cosmos 1242 Rocket 4.3 21:03:49 10° SW 21:07:17 38° WNW 21:10:44 10° N
Cosmos 1408 3.2 21:08:22 10° N 21:11:53 39° ENE 21:15:21 10° SSE
CENTAUR R/B 3.0 21:06:54 10° SW 21:13:02 71° NW 21:20:06 10° NE
ERBS 2.3 21:12:51 10° NW 21:16:19 89° S 21:19:22 13° SE
Cosmos 2026 Rocket 4.1 21:11:33 10° N 21:17:46 60° ENE 21:23:49 10° SSE
Cosmos 1455 2.3 21:14:38 10° SSW 21:18:26 77° W 21:22:14 10° N
SAR-Lupe-1 4.0 21:17:35 10° SSE 21:21:08 78° ENE 21:24:45 10° N
Cosmos 220 Rocket 4.1 21:16:58 10° NNW 21:21:24 66° ENE 21:25:45 10° SSE
Cosmos 1869 3.3 21:17:56 10° S 21:21:49 62° E 21:25:43 10° NNE
Cosmos 1697 Rocket 3.7 21:18:13 10° SW 21:23:43 52° WNW 21:29:15 10° NNE
SeaSat 1 3.5 21:20:24 12° ESE 21:24:23 31° NE 21:28:43 10° N
ATLAS CENTAUR R/B 4.2 21:24:39 10° WSW 21:26:24 14° SW 21:29:00 10° S
Cosmos 1503 Rocket 4.0 21:32:16 10° NNW 21:37:35 86° ENE 21:42:25 12° SSE
Cosmos 1634 Rocket 4.1 21:31:58 10° S 21:38:17 89° WNW 21:44:40 10° N
Cosmos 1315 Rocket 4.0 21:34:32 10° NNW 21:38:28 44° W 21:42:18 10° SSW
Cosmos 2263 Rocket 2.4 21:33:02 10° NNW 21:38:31 55° ENE 21:42:39 17° SE
Cosmos 1655 Rocket 4.1 21:32:47 10° N 21:39:13 71° E 21:45:33 10° SSE
Intercosmos 25 Rocket 3.0 21:36:25 10° S 21:39:33 64° E 21:43:30 10° NNE
Cosmos 1354 Rocket 4.0 21:35:34 10° NNW 21:40:53 88° WSW 21:45:44 12° SSE
Cosmos 1933 3.8 21:38:53 13° SSE 21:42:04 39° E 21:45:51 10° NNE
USA 186 4.0 21:41:55 10° SSW 21:44:02 21° W 21:46:19 10° NW
Cosmos 2322 Rocket 2.2 21:38:44 10° S 21:44:11 56° ESE 21:49:42 10° NE
H-2A R/B 3.4 21:43:26 16° E 21:45:56 22° ENE 21:49:44 10° NNE
USA 267 4.1 21:41:46 10° NE 21:48:04 51° NNW 21:54:21 10° W
YAOGAN 6 2.5 21:45:47 18° SSE 21:48:27 72° ENE 21:52:04 10° N
Terra 3.8 21:48:00 11° E 21:49:57 14° ENE 21:52:23 10° NNE
Abrixas rocket 2.1 21:46:57 10° WSW 21:50:14 73° SSE 21:52:34 18° ENE
Cosmos 1733 Rocket 3.0 21:49:12 10° N 21:53:41 86° ENE 21:57:20 15° S
Meteor 2-10 Rocket 4.2 21:49:44 14° SSE 21:54:13 41° E 21:59:37 10° NNE
Cosmos 2360 Rocket 3.0 21:52:40 19° SE 21:55:30 28° ESE 22:00:15 10° NE
Cosmos 1980 Rocket 3.3 21:50:45 10° SW 21:56:14 49° WNW 22:01:47 10° NNE
Helios 1B rocket 3.3 21:53:00 10° N 21:57:00 53° WNW 22:01:00 10° SSW
Meteor 1-29 3.8 21:55:37 10° N 21:59:03 53° WNW 22:02:26 10° SSW
Lacrosse 4 Rocket 1.8 21:56:12 10° NW 22:00:28 64° WSW 22:03:18 21° SSE
Cosmos 1862 Rocket 3.5 21:57:08 10° S 22:01:33 73° E 22:06:03 10° NNE
SL-08 RB Rocket 4.5 21:59:44 24° ESE 22:01:44 36° ENE 22:05:55 10° N
Cosmos 968 Rocket 3.9 21:58:43 10° NNW 22:03:45 48° ENE 22:06:22 26° ESE
NOAA 11 4.2 22:01:01 21° SSE 22:04:45 67° ENE 22:10:13 10° N
Cosmos 1825 3.1 22:01:17 10° NNW 22:04:56 47° W 22:08:25 11° SSW
Cosmos 1862 3.5 22:01:27 10° NNW 22:05:28 72° W 22:08:23 18° S
Cosmos 2266 Rocket 4.3 21:59:25 10° N 22:05:30 50° ENE 22:09:09 24° SE
CZ-4C R/B 4.3 22:02:32 10° NNW 22:07:54 25° NNE 22:13:48 10° ENE
Envisat 4.2 22:04:19 10° SSW 22:09:06 41° W 22:13:55 10° NNW
GENESIS II 4.4 22:06:21 10° SSW 22:10:16 50° ESE 22:14:14 10° NE
SL-16 R/B 2.1 22:05:25 10° SSW 22:11:05 87° ESE 22:16:49 10° NNE
Cosmos 1939 Rocket 4.4 22:10:11 10° SSW 22:13:55 34° W 22:17:37 10° NNW
YAOGAN 11 4.0 22:12:38 29° SSE 22:14:50 76° ENE 22:19:12 10° N
Cosmos 2242 Rocket 4.4 22:10:38 10° SSW 22:15:02 52° WNW 22:19:27 10° N
Milstar 3 4.3 22:11:21 10° SW 22:15:37 16° SSW 22:17:22 15° S
SPOT 5 2.8 22:15:36 30° SSE 22:17:59 68° ENE 22:22:39 10° N
Okean 1-7 4.0 22:18:27 29° E 22:18:40 29° E 22:22:29 10° NNE
Cosmos 2279 Rocket 4.2 22:14:34 10° SSW 22:20:49 72° W 22:27:04 10° N
ATLAS 5 CENTAUR R/B 2.4 22:15:08 10° NW 22:21:03 75° NE 22:24:21 30° SE
Cosmos 1703 Rocket 3.9 22:20:15 37° SE 22:21:22 45° E 22:25:37 10° NNE
Cosmos 2221 Rocket 4.2 22:22:36 35° ESE 22:23:02 36° E 22:27:05 10° NNE
USA 234 4.3 22:20:01 16° S 22:24:32 35° SW 22:30:29 10° WNW
MetOp-B 4.1 22:21:51 25° SSE 22:25:05 86° WSW 22:30:29 10° NNW
Meteor 1-26 Rocket 4.2 22:24:05 23° S 22:27:40 66° E 22:33:24 10° NNE
Cosmos 489 Rocket 4.5 22:22:17 10° NNW 22:28:41 88° ENE 22:32:05 30° SSE
Cosmos 2278 Rocket 4.1 22:25:45 10° N 22:29:41 19° NE 22:32:28 14° ENE
SPOT 1/Viking Rocket 3.6 22:30:50 36° SE 22:32:54 67° ENE 22:38:06 10° N
ARGOS 3.1 22:30:20 31° SSE 22:32:58 87° ENE 22:38:23 10° NNW
Atlas Centaur 2 4.1 22:29:18 10° SSW 22:34:14 22° S 22:34:14 22° S
MOS 1-B Rocket 3.8 22:35:42 31° SSE 22:38:48 87° ENE 22:44:28 10° NNW
CARTOSAT-1 4.5 22:38:33 32° E 22:38:57 33° ENE 22:42:51 10° N
Cosmos 1844 Rocket 3.3 22:37:03 10° NNW 22:42:20 42° NE 22:44:04 33° E
ERS-1 Rocket 4.1 22:42:12 16° SSW 22:45:46 38° W 22:50:27 10° NNW
Sich 1 Rocket 4.2 22:47:56 10° NNW 22:52:16 53° W 22:53:57 33° SSW
Meteor 1-14 Rocket 4.4 22:51:39 10° NNW 22:57:16 72° W 22:59:37 37° S
SeaSat 1 3.2 23:00:11 34° SSW 23:01:46 45° WSW 23:06:30 10° NW
Cosmos 1777 Rocket 3.9 22:56:27 10° NNW 23:01:46 75° ENE 23:02:46 58° SE
Cosmos 2219 Rocket 3.6 23:03:40 22° ENE 23:03:40 22° ENE 23:06:32 10° NE
H-2A R/B 1.9 23:07:13 75° ENE 23:07:14 75° ENE 23:11:34 10° N
USA 229 DEB 3.6 23:04:46 26° SSW 23:08:49 64° ESE 23:15:41 10° NE
USA 229 3.6 23:05:03 27° SSW 23:08:55 63° ESE 23:15:47 10° NE
Landsat 7 3.7 23:11:17 67° S 23:11:53 83° WSW 23:16:41 10° NNW
Cosmos 2237 4.1 23:13:32 57° SSE 23:14:35 70° ESE 23:20:19 10° NNE
Meteor 1-25 Rocket 4.4 23:11:18 10° NNW 23:16:52 67° W 23:18:23 47° SSW
DMSP B5D2-2 3.9 23:11:42 10° NNE 23:16:59 72° ESE 23:17:32 66° SSE
Cosmos 1867 4.0 23:16:37 10° NW 23:21:52 48° WSW 23:22:40 44° SW
Cosmos 2263 Rocket 3.9 23:17:40 10° NW 23:22:03 24° WSW 23:24:22 19° SW
COSMOS 2428 2.6 23:23:05 63° ESE 23:23:12 64° ESE 23:28:51 10° NNE
Cosmos 1782 Rocket 4.5 23:19:26 10° NNW 23:23:32 41° W 23:24:09 38° WSW
Okean 2 Rocket 3.4 23:19:26 10° NNW 23:23:53 58° W 23:24:13 56° WSW
H-2A R/B 2.5 23:24:03 45° SW 23:25:03 52° W 23:29:55 10° NNW
Iridium 4 Rocket 4.2 23:21:35 10° NNE 23:24:28 33° NE 23:24:28 33° NE
Spot 4 4.1 23:26:16 55° ENE 23:26:16 55° ENE 23:30:49 10° N
Terra 1.7 23:26:53 82° SW 23:27:01 84° WSW 23:31:49 10° NNW
Abrixas rocket 4.4 23:23:54 10° W 23:25:17 22° WNW 23:25:17 22° WNW
Cosmos 2322 Rocket 4.2 23:23:49 10° WSW 23:28:35 27° NW 23:33:22 10° N
Cosmos 1300 Rocket 4.5 23:29:10 10° N 23:32:27 39° NE 23:32:27 39° NE
CZ-4 R/B 4.1 23:29:12 10° NNE 23:33:14 56° ENE 23:33:14 56° ENE
IGS 5A 3.9 23:35:11 61° NW 23:35:11 61° NW 23:38:46 10° NNW
Cosmos 2360 Rocket 3.0 23:34:16 13° SW 23:39:13 49° WNW 23:44:45 10° NNE
Cosmos 1745 Rocket 4.0 23:32:59 10° N 23:39:16 66° ENE 23:40:02 61° ESE
Cosmos 1417 Rocket 4.4 23:39:07 64° S 23:40:09 83° E 23:46:33 10° N
Cosmos 1844 3.5 23:35:46 10° NNW 23:41:31 87° ENE 23:41:50 80° SE
Cosmos 2322 4.4 23:40:41 19° SW 23:44:37 52° WNW 23:50:12 10° NNE
Geosat 4.2 23:42:07 10° NNE 23:47:08 69° WNW 23:47:59 57° WSW
SL-16 R/B 4.4 23:51:28 12° ENE 23:51:28 12° ENE 23:52:19 10° ENE
Meteor 2-6 Rocket 4.3 23:49:27 63° SW 23:50:25 78° WNW 23:56:24 10° N
deb Chang Zheng 4 4.1 23:46:31 10° N 23:50:34 58° NW 23:50:34 58° NW
ASTEX 1 3.7 23:50:52 61° W 23:50:57 61° W 23:55:55 10° NNW
Cosmos 1606 4.1 23:53:06 36° NNW 23:53:06 36° NNW 23:55:40 10° N
